Location: Peterborough
(44.3091°N, 78.3197°W)
Time: 07:32:09
(UTC-05:00)

A-11 Canister half - Pass Details

Date: 16 December 2023
Orbit: 1512 x 1687 km, 47.2° (Epoch: 25 February)

Event Time Altitude Azimuth Distance (km) Brightness Sun altitude
Rises 20:10:19 0° 212° (SSW) 4,644 11.9 -37.5°
Reaches altitude 10° 20:13:30 10° 206° (SSW) 3,674 11.2 -38.0°
Enters shadow 20:17:53 29° 187° (S) 2,524 10.0 -38.8°
